Time,TemperatureF,DewpointF,PressureIn,WindDirection,WindDirectionDegrees,WindSpeedMPH,WindSpeedGustMPH,Humidity,HourlyPrecipIn,Conditions,Clouds,dailyrainin,SoftwareType,DateUTC
2013-01-23 00:00:00,-9.5,-18.0,30.36,SW,225,0.0,0.0,66,0.00,,,0.00,WUHU216HW,2013-01-23 06:00:00,
2013-01-23 00:05:00,-9.5,-18.0,30.36,SW,225,0.0,0.0,66,0.00,,,0.00,WUHU216HW,2013-01-23 06:05:00,
2013-01-23 00:30:00,-10.4,-18.8,30.35,SSE,158,0.0,0.0,66,0.00,,,0.00,WUHU216HW,2013-01-23 06:30:00,
2013-01-23 00:35:00,-10.4,-18.8,30.35,SSE,158,0.0,0.0,66,0.00,,,0.00,WUHU216HW,2013-01-23 06:35:00,
2013-01-23 01:00:00,-11.2,-19.5,30.35,SSE,158,0.0,0.0,66,0.00,,,0.00,WUHU216HW,2013-01-23 07:00:00,
2013-01-23 01:05:00,-11.2,-19.5,30.35,SSE,158,0.0,0.0,66,0.00,,,0.00,WUHU216HW,2013-01-23 07:05:00,
2013-01-23 01:30:00,-11.9,-19.9,30.35,SSE,158,0.0,0.0,67,0.00,,,0.00,WUHU216HW,2013-01-23 07:30:00,
2013-01-23 01:35:00,-11.9,-19.9,30.35,SSE,158,0.0,0.0,67,0.00,,,0.00,WUHU216HW,2013-01-23 07:35:00,
2013-01-23 02:00:00,-12.2,-20.2,30.35,SSW,203,0.0,0.0,67,0.00,,,0.00,WUHU216HW,2013-01-23 08:00:00,
2013-01-23 02:05:00,-12.2,-20.2,30.35,SSW,203,0.0,0.0,67,0.00,,,0.00,WUHU216HW,2013-01-23 08:05:00,
2013-01-23 02:30:00,-12.6,-20.5,30.34,SW,225,0.0,0.0,67,0.00,,,0.00,WUHU216HW,2013-01-23 08:30:00,
2013-01-23 02:35:00,-12.6,-20.5,30.34,SW,225,0.0,0.0,67,0.00,,,0.00,WUHU216HW,2013-01-23 08:35:00,
2013-01-23 03:00:00,-12.2,-19.9,30.32,SW,225,0.0,0.0,68,0.00,,,0.00,WUHU216HW,2013-01-23 09:00:00,
2013-01-23 03:05:00,-12.2,-19.9,30.32,SW,225,0.0,0.0,68,0.00,,,0.00,WUHU216HW,2013-01-23 09:05:00,
2013-01-23 03:30:00,-12.8,-20.4,30.33,North,0,0.0,0.0,68,0.00,,,0.00,WUHU216HW,2013-01-23 09:30:00,
2013-01-23 03:35:00,-12.8,-20.4,30.33,North,0,0.0,0.0,68,0.00,,,0.00,WUHU216HW,2013-01-23 09:35:00,
2013-01-23 04:00:00,-12.6,-20.2,30.32,North,0,0.0,0.0,68,0.00,,,0.00,WUHU216HW,2013-01-23 10:00:00,
2013-01-23 04:05:00,-12.6,-20.2,30.32,North,0,0.0,0.0,68,0.00,,,0.00,WUHU216HW,2013-01-23 10:05:00,
2013-01-23 04:30:00,-13.3,-21.0,30.31,North,0,0.0,0.0,68,0.00,,,0.00,WUHU216HW,2013-01-23 10:30:00,
2013-01-23 04:35:00,-13.3,-21.0,30.31,North,0,0.0,0.0,68,0.00,,,0.00,WUHU216HW,2013-01-23 10:35:00,
2013-01-23 05:00:00,-14.0,-21.7,30.30,NNW,338,0.0,0.0,68,0.00,,,0.00,WUHU216HW,2013-01-23 11:00:00,
2013-01-23 05:05:00,-14.0,-21.7,30.30,NNW,338,0.0,0.0,68,0.00,,,0.00,WUHU216HW,2013-01-23 11:05:00,
2013-01-23 05:30:00,-14.4,-21.9,30.30,NNW,338,0.0,0.0,68,0.00,,,0.00,WUHU216HW,2013-01-23 11:30:00,
2013-01-23 05:35:00,-14.4,-21.9,30.30,NNW,338,0.0,0.0,68,0.00,,,0.00,WUHU216HW,2013-01-23 11:35:00,
2013-01-23 06:00:00,-14.4,-21.9,30.30,NW,315,0.0,0.0,68,0.00,,,0.00,WUHU216HW,2013-01-23 12:00:00,
2013-01-23 06:05:00,-14.4,-21.9,30.30,NW,315,0.0,0.0,68,0.00,,,0.00,WUHU216HW,2013-01-23 12:05:00,
2013-01-23 06:30:00,-13.3,-21.0,30.30,SSE,158,0.0,0.0,68,0.00,,,0.00,WUHU216HW,2013-01-23 12:30:00,
2013-01-23 06:35:00,-13.3,-21.0,30.30,SSE,158,0.0,0.0,68,0.00,,,0.00,WUHU216HW,2013-01-23 12:35:00,
2013-01-23 07:00:00,-11.2,-18.6,30.28,NNW,338,0.0,0.0,69,0.00,,,0.00,WUHU216HW,2013-01-23 13:00:00,
2013-01-23 07:05:00,-11.2,-18.6,30.28,NNW,338,0.0,0.0,69,0.00,,,0.00,WUHU216HW,2013-01-23 13:05:00,
2013-01-23 07:30:00,-9.4,-16.3,30.28,South,180,0.2,0.2,71,0.00,,,0.00,WUHU216HW,2013-01-23 13:30:00,
2013-01-23 07:35:00,-9.4,-16.3,30.28,South,180,0.2,0.2,71,0.00,,,0.00,WUHU216HW,2013-01-23 13:35:00,
2013-01-23 08:00:00,-7.6,-14.2,30.27,SW,225,0.2,0.2,72,0.00,,,0.00,WUHU216HW,2013-01-23 14:00:00,
2013-01-23 08:05:00,-7.6,-14.2,30.27,SW,225,0.2,0.2,72,0.00,,,0.00,WUHU216HW,2013-01-23 14:05:00,
2013-01-23 08:30:00,-5.6,-12.7,30.27,WNW,293,0.0,0.0,71,0.00,,,0.00,WUHU216HW,2013-01-23 14:30:00,
2013-01-23 08:35:00,-5.6,-12.7,30.27,WNW,293,0.0,0.0,71,0.00,,,0.00,WUHU216HW,2013-01-23 14:35:00,
2013-01-23 09:00:00,-3.8,-10.6,30.27,WNW,293,0.7,0.7,72,0.00,,,0.00,WUHU216HW,2013-01-23 15:00:00,
2013-01-23 09:05:00,-3.8,-10.6,30.27,WNW,293,0.7,0.7,72,0.00,,,0.00,WUHU216HW,2013-01-23 15:05:00,
2013-01-23 09:30:00,-1.1,-7.7,30.28,WNW,293,0.0,0.0,73,0.00,,,0.00,WUHU216HW,2013-01-23 15:30:00,
2013-01-23 09:35:00,-1.1,-7.7,30.28,WNW,293,0.0,0.0,73,0.00,,,0.00,WUHU216HW,2013-01-23 15:35:00,
2013-01-23 10:00:00,1.1,-5.9,30.27,NNW,338,1.6,1.6,72,0.00,,,0.00,WUHU216HW,2013-01-23 16:00:00,
2013-01-23 10:05:00,1.1,-5.9,30.27,NNW,338,1.6,1.6,72,0.00,,,0.00,WUHU216HW,2013-01-23 16:05:00,
2013-01-23 10:30:00,3.2,-3.5,30.27,NW,315,1.3,1.3,73,0.00,,,0.00,WUHU216HW,2013-01-23 16:30:00,
2013-01-23 10:35:00,3.2,-3.5,30.27,NW,315,1.3,1.3,73,0.00,,,0.00,WUHU216HW,2013-01-23 16:35:00,
2013-01-23 11:00:00,6.8,-0.9,30.27,NNW,338,0.9,0.9,70,0.00,,,0.00,WUHU216HW,2013-01-23 17:00:00,
2013-01-23 11:05:00,6.8,-0.9,30.27,NNW,338,0.9,0.9,70,0.00,,,0.00,WUHU216HW,2013-01-23 17:05:00,
2013-01-23 11:30:00,9.7,1.2,30.25,NNW,338,3.4,3.4,68,0.00,,,0.00,WUHU216HW,2013-01-23 17:30:00,
2013-01-23 11:35:00,9.7,1.2,30.25,NNW,338,3.4,3.4,68,0.00,,,0.00,WUHU216HW,2013-01-23 17:35:00,
2013-01-23 12:00:00,10.3,1.7,30.23,SW,225,1.3,1.3,68,0.00,,,0.00,WUHU216HW,2013-01-23 18:00:00,
2013-01-23 12:05:00,10.3,1.7,30.23,SW,225,1.3,1.3,68,0.00,,,0.00,WUHU216HW,2013-01-23 18:05:00,
2013-01-23 12:30:00,11.9,3.0,30.22,WNW,293,2.5,2.5,67,0.00,,,0.00,WUHU216HW,2013-01-23 18:30:00,
2013-01-23 12:35:00,11.9,3.0,30.22,WNW,293,2.5,2.5,67,0.00,,,0.00,WUHU216HW,2013-01-23 18:35:00,
2013-01-23 13:00:00,12.1,2.4,30.21,NW,315,2.5,2.5,65,0.00,,,0.00,WUHU216HW,2013-01-23 19:00:00,
2013-01-23 13:05:00,12.1,2.4,30.21,NW,315,2.5,2.5,65,0.00,,,0.00,WUHU216HW,2013-01-23 19:05:00,
2013-01-23 13:30:00,11.2,1.6,30.21,NW,315,2.5,2.5,65,0.00,,,0.00,WUHU216HW,2013-01-23 19:30:00,
2013-01-23 13:35:00,11.2,1.6,30.21,NW,315,2.5,2.5,65,0.00,,,0.00,WUHU216HW,2013-01-23 19:35:00,
2013-01-23 14:00:00,11.2,2.9,30.22,North,0,0.7,0.7,69,0.00,,,0.00,WUHU216HW,2013-01-23 20:00:00,
2013-01-23 14:05:00,11.2,2.9,30.22,NNW,338,0.4,0.7,69,0.00,,,0.00,WUHU216HW,2013-01-23 20:05:00,
2013-01-23 14:30:00,10.8,3.4,30.23,WNW,293,4.3,4.3,72,0.00,,,0.00,WUHU216HW,2013-01-23 20:30:00,
2013-01-23 14:35:00,10.8,3.4,30.23,WNW,293,4.3,4.3,72,0.00,,,0.00,WUHU216HW,2013-01-23 20:35:00,
2013-01-23 15:00:00,9.4,0.9,30.26,NW,315,2.5,2.5,68,0.00,,,0.00,WUHU216HW,2013-01-23 21:00:00,
2013-01-23 15:05:00,9.4,0.9,30.26,NW,315,2.5,2.5,68,0.00,,,0.00,WUHU216HW,2013-01-23 21:05:00,
2013-01-23 15:30:00,8.8,-0.3,30.28,NW,315,1.3,1.3,66,0.00,,,0.00,WUHU216HW,2013-01-23 21:30:00,
2013-01-23 15:35:00,8.8,-0.3,30.28,NW,315,1.3,1.3,66,0.00,,,0.00,WUHU216HW,2013-01-23 21:35:00,
2013-01-23 16:00:00,7.9,0.2,30.31,NW,315,1.1,1.1,70,0.00,,,0.00,WUHU216HW,2013-01-23 22:00:00,
2013-01-23 16:05:00,7.7,0.0,30.31,NW,315,2.5,2.5,70,0.00,,,0.00,WUHU216HW,2013-01-23 22:05:00,
2013-01-23 16:30:00,6.5,-2.2,30.33,North,0,0.7,0.7,67,0.00,,,0.00,WUHU216HW,2013-01-23 22:30:00,
2013-01-23 16:35:00,6.5,-2.2,30.33,North,0,0.7,0.7,67,0.00,,,0.00,WUHU216HW,2013-01-23 22:35:00,
2013-01-23 17:00:00,4.9,-4.1,30.35,NW,315,1.6,1.6,66,0.00,,,0.00,WUHU216HW,2013-01-23 23:00:00,
2013-01-23 17:05:00,4.9,-4.1,30.35,WNW,293,2.7,2.7,66,0.00,,,0.00,WUHU216HW,2013-01-23 23:05:00,
2013-01-23 17:30:00,4.0,-4.7,30.38,NNW,338,0.9,0.9,67,0.00,,,0.00,WUHU216HW,2013-01-23 23:30:00,
2013-01-23 17:35:00,4.0,-4.7,30.38,NNW,338,0.9,0.9,67,0.00,,,0.00,WUHU216HW,2013-01-23 23:35:00,
2013-01-23 18:00:00,3.1,-4.5,30.40,NW,315,1.6,1.6,70,0.00,,,0.00,WUHU216HW,2013-01-24 00:00:00,
2013-01-23 18:05:00,3.1,-4.5,30.40,NW,315,1.6,1.6,70,0.00,,,0.00,WUHU216HW,2013-01-24 00:05:00,
2013-01-23 18:30:00,2.0,-5.0,30.42,WNW,293,4.7,4.7,72,0.00,,,0.00,WUHU216HW,2013-01-24 00:30:00,
2013-01-23 18:35:00,2.0,-5.0,30.42,WNW,293,4.7,4.7,72,0.00,,,0.00,WUHU216HW,2013-01-24 00:35:00,
2013-01-23 19:00:00,1.8,-4.7,30.45,NNW,338,2.0,2.0,74,0.00,,,0.00,WUHU216HW,2013-01-24 01:00:00,
2013-01-23 19:05:00,1.8,-4.7,30.45,NNW,338,2.0,2.0,74,0.00,,,0.00,WUHU216HW,2013-01-24 01:05:00,
2013-01-23 19:30:00,1.6,-4.9,30.48,WNW,293,1.8,1.8,74,0.00,,,0.00,WUHU216HW,2013-01-24 01:30:00,
2013-01-23 19:35:00,1.6,-4.9,30.48,WNW,293,1.8,1.8,74,0.00,,,0.00,WUHU216HW,2013-01-24 01:35:00,
2013-01-23 20:00:00,1.1,-5.1,30.49,NW,315,1.3,1.3,75,0.00,,,0.00,WUHU216HW,2013-01-24 02:00:00,
2013-01-23 20:05:00,1.1,-5.1,30.49,NW,315,1.3,1.3,75,0.00,,,0.00,WUHU216HW,2013-01-24 02:05:00,
2013-01-23 20:30:00,0.2,-6.2,30.51,WNW,293,1.1,1.1,74,0.00,,,0.00,WUHU216HW,2013-01-24 02:30:00,
2013-01-23 20:35:00,0.2,-6.2,30.51,WNW,293,1.1,1.1,74,0.00,,,0.00,WUHU216HW,2013-01-24 02:35:00,
2013-01-23 21:00:00,-0.7,-6.8,30.53,NW,315,1.6,1.6,75,0.00,,,0.00,WUHU216HW,2013-01-24 03:00:00,
2013-01-23 21:05:00,-0.7,-6.8,30.53,NW,315,1.6,1.6,75,0.00,,,0.00,WUHU216HW,2013-01-24 03:05:00,
2013-01-23 21:30:00,-1.6,-7.9,30.54,NNW,338,0.4,0.4,74,0.00,,,0.00,WUHU216HW,2013-01-24 03:30:00,
2013-01-23 21:35:00,-1.6,-7.9,30.54,NNW,338,0.4,0.4,74,0.00,,,0.00,WUHU216HW,2013-01-24 03:35:00,
2013-01-23 22:00:00,-2.5,-8.8,30.56,NNW,338,0.4,0.4,74,0.00,,,0.00,WUHU216HW,2013-01-24 04:00:00,
2013-01-23 22:05:00,-2.5,-8.8,30.56,NNW,338,0.4,0.4,74,0.00,,,0.00,WUHU216HW,2013-01-24 04:05:00,
2013-01-23 22:30:00,-3.1,-9.4,30.56,NW,315,0.4,0.4,74,0.00,,,0.00,WUHU216HW,2013-01-24 04:30:00,
2013-01-23 22:35:00,-3.1,-9.4,30.56,NW,315,0.4,0.4,74,0.00,,,0.00,WUHU216HW,2013-01-24 04:35:00,
2013-01-23 23:00:00,-3.8,-10.1,30.58,NW,315,1.1,1.1,74,0.00,,,0.00,WUHU216HW,2013-01-24 05:00:00,
2013-01-23 23:01:00,-3.8,-10.1,30.58,NW,315,1.1,1.1,74,0.00,,,0.00,WUHU216HW,2013-01-24 05:01:00,
2013-01-23 23:03:00,-3.8,-10.1,30.58,NW,315,1.1,1.1,74,0.00,,,0.00,WUHU216HW,2013-01-24 05:03:00,
2013-01-23 23:08:00,-3.8,-10.1,30.58,NW,315,1.1,1.1,74,0.00,,,0.00,WUHU216HW,2013-01-24 05:08:00,
2013-01-23 23:30:00,-4.1,-10.4,30.60,West,270,0.2,0.2,74,0.00,,,0.00,WUHU216HW,2013-01-24 05:30:00,
2013-01-23 23:35:00,-4.1,-10.4,30.60,West,270,0.2,0.2,74,0.00,,,0.00,WUHU216HW,2013-01-24 05:35:00,